This is the latest recevied weather packets stored in our database for station/object DC1NF-6. If no packets are shown the sender has not sent any weather packets the latest 10 day(s).
| Time | Temp. | Humidity | Pressure | Rain* | Wind** | Luminosity | Snow |
|---|---|---|---|---|---|---|---|
| 1777739153 | 24.44° C | 31% | 1017.5 hPa | 0 mm | - | - | - |
| 1777738549 | 25° C | 26% | 1017.7 hPa | 0 mm | - | - | - |
| 1777737945 | 24.44° C | 26% | 1017.8 hPa | 0 mm | - | - | - |
| 1777737341 | 24.44° C | 25% | 1017.9 hPa | 0 mm | - | - | - |
| 1777736738 | 25° C | 26% | 1018 hPa | 0 mm | - | - | - |
| 1777736134 | 25° C | 26% | 1018 hPa | 0 mm | - | - | - |
| 1777735530 | 25° C | 26% | 1018.1 hPa | 0 mm | - | - | - |
| 1777734927 | 25° C | 25% | 1018.2 hPa | 0 mm | - | - | - |
| 1777734323 | 25° C | 26% | 1018.3 hPa | 0 mm | - | - | - |
| 1777733719 | 25° C | 26% | 1018.4 hPa | 0 mm | - | - | - |
| 1777733115 | 25.56° C | 25% | 1018.5 hPa | 0 mm | - | - | - |
| 1777732571 | 25.56° C | 27% | 1018.7 hPa | 0 mm | - | - | - |
| 1777731968 | 26.11° C | 25% | 1018.8 hPa | 0 mm | - | - | - |
| 1777731364 | 26.11° C | 25% | 1018.9 hPa | 0 mm | - | - | - |
| 1777730760 | 26.67° C | 25% | 1019 hPa | 0 mm | - | - | - |
| 1777730157 | 27.22° C | 24% | 1019.2 hPa | 0 mm | - | - | - |
| 1777729553 | 27.22° C | 25% | 1019.3 hPa | 0 mm | - | - | - |
| 1777728949 | 27.78° C | 24% | 1019.4 hPa | 0 mm | - | - | - |
| 1777728346 | 27.78° C | 23% | 1019.5 hPa | 0 mm | - | - | - |
| 1777727741 | 28.33° C | 24% | 1019.5 hPa | 0 mm | - | - | - |
| 1777727137 | 28.89° C | 23% | 1019.8 hPa | 0 mm | - | - | - |
| 1777726533 | 28.33° C | 22% | 1019.9 hPa | 0 mm | - | - | - |
| 1777725930 | 28.89° C | 21% | 1020 hPa | 0 mm | - | - | - |
| 1777725326 | 27.78° C | 23% | 1020.2 hPa | 0 mm | - | - | - |
| 1777724723 | 28.33° C | 22% | 1020.3 hPa | 0 mm | - | - | - |
* Rain latest hour (hover to see other rain measurements)
** Current wind speed in m/s (hover to see current wind gust speed)